Dewpoint
-6 -4 -4 -2 -3 -3 -4 -4 -1 -2 -4 -6 -7 -7 -9 -7 -7 -8 -11 -12 -12 -12 -11 -11 -10 -10 -14 -15 -13 -13 -14 -17 -19 -19 -18 -18 -18 -18 -19 -19 -18 -18 -17 -16
-2 -4 -5 -4 -2 -2 -4 -5 -4 -4 -3 -5 -8 -9 -8 -8 -9 -10 -8 -11 -12 -12 -10 -10 -10 -11 -11 -14 -15 -13 -14 -15 -17 -19 -20 -20 -20 -20 -20 -21 -21 -20 -19 -18
-2 -2 -2 -1 -2 -2 -3 -3 -4 -3 -5 -4 -4 -5 -6 -7 -8 -8 -9 -9 -8 -9 -10 -11 -11 -11 -10 -12 -14 -14 -14 -15 -15 -16 -17 -18 -19 -20 -20 -21 -21 -21 -20 -20
-1 -1 1 -1 -0 -2 -3 -4 -4 -5 -7 -6 -5 -6 -5 -5 -5 -6 -6 -6 -7 -7 -9 -10 -11 -11 -10 -10 -11 -14 -14 -15 -14 -14 -14 -15 -15 -15 -17 -18 -18 -19 -19 -19
1 1 -1 -1 -1 -1 0 -1 -1 -1 -4 -5 -5 -5 -4 -5 -7 -8 -8 -5 -5 -5 -5 -6 -8 -9 -10 -9 -10 -11 -13 -9 -7 -8 -9 -12 -13 -12 -13 -14 -15 -16 -16 -16
1 2 2 -2 -1 -5 -1 -2 -1 -2 -3 -3 -4 -2 -4 -6 -6 -6 -6 -6 -7 -7 -6 -6 -7 -8 -9 -10 -10 -9 -8 -7 -6 -6 -9 -11 -11 -10 -11 -12 -12 -13 -14 -14
2 2 1 1 -4 -6 -0 -1 -6 -6 -3 -2 -1 -4 -6 -7 -7 -7 -7 -7 -6 -6 -6 -6 -7 -7 -7 -7 -7 -7 -6 -5 -5 -6 -6 -7 -8 -9 -10 -11 -11 -11 -11 -11
-0 2 2 -4 -5 -3 -3 -5 -4 -4 -5 -5 -5 -5 -5 -5 -6 -6 -8 -8 -8 -8 -7 -6 -5 -5 -5 -5 -5 -6 -6 -6 -6 -6 -7 -7 -8 -8 -8 -9 -9 -10 -9 -9
-1 -0 -4 -6 -6 -7 -5 -5 -5 -5 -5 -4 -4 -4 -5 -6 -6 -6 -6 -6 -6 -6 -7 -7 -8 -8 -9 -9 -8 -8 -8 -8 -8 -8 -8 -8 -8 -8 -8 -8 -8 -9 -9 -10
-1 -2 -6 -8 -9 -9 -8 -8 -6 -5 -5 -4 -4 -4 -3 -3 -4 -5 -5 -5 -5 -6 -6 -8 -8 -8 -8 -8 -9 -9 -9 -9 -9 -9 -9 -8 -8 -8 -8 -8 -9 -9 -9 -10
-2 -9 -10 -12 -13 -11 -10 -8 -7 -7 -6 -6 -5 -4 -4 -4 -4 -3 -3 -4 -5 -6 -6 -6 -6 -6 -7 -7 -8 -8 -8 -8 -8 -8 -8 -8 -8 -8 -9 -9 -9 -9 -10 -10
-5 -15 -14 -13 -15 -13 -12 -11 -9 -8 -7 -8 -9 -8 -8 -7 -6 -5 -5 -4 -4 -6 -6 -6 -7 -7 -7 -7 -7 -8 -8 -8 -8 -8 -9 -9 -9 -9 -10 -10 -11 -11 -11 -12
-17 -18 -17 -16 -16 -16 -16 -14 -12 -12 -13 -12 -11 -11 -10 -9 -8 -7 -6 -6 -5 -5 -6 -6 -7 -7 -7 -8 -8 -9 -9 -9 -10 -10 -10 -10 -11 -11 -11 -11 -11 -11 -12 -13
-20 -18 -16 -17 -18 -17 -17 -17 -16 -15 -15 -14 -14 -13 -12 -11 -11 -10 -9 -8 -8 -7 -7 -8 -8 -8 -8 -8 -9 -10 -10 -10 -10 -10 -11 -11 -12 -12 -12 -12 -12 -13 -13 -13
-20 -20 -20 -20 -19 -19 -19 -20 -19 -18 -17 -17 -16 -15 -14 -13 -12 -11 -11 -11 -10 -10 -10 -10 -10 -10 -10 -10 -11 -11 -11 -12 -12 -13 -13 -14 -14 -14 -14 -15 -15 -15 -15 -16
-22 -20 -20 -21 -21 -20 -20 -20 -20 -20 -19 -18 -17 -17 -16 -15 -14 -13 -13 -12 -12 -12 -12 -12 -12 -12 -12 -12 -13 -13 -14 -14 -15 -15 -15 -15 -16 -16 -17 -19 -24 -30 -34 -36
-22 -22 -22 -22 -21 -21 -21 -21 -20 -20 -20 -19 -18 -18 -17 -16 -15 -15 -14 -14 -14 -14 -14 -14 -14 -14 -14 -14 -14 -14 -15 -15 -16 -17 -18 -22 -28 -34 -35 -36 -35 -35 -35 -35
-22 -22 -22 -22 -22 -22 -22 -22 -21 -21 -20 -20 -19 -19 -18 -17 -17 -16 -16 -16 -15 -15 -15 -15 -15 -15 -15 -15 -15 -16 -16 -17 -23 -30 -33 -34 -34 -34 -33 -34 -34 -35 -34 -33
-26 -25 -24 -24 -23 -22 -22 -22 -22 -22 -23 -20 -20 -19 -19 -19 -18 -18 -17 -17 -17 -16 -16 -16 -16 -16 -16 -16 -17 -19 -28 -32 -32 -32 -32 -32 -33 -33 -33 -33 -31 -29 -30 -32
-27 -27 -27 -26 -25 -24 -23 -23 -22 -22 -23 -23 -20 -20 -20 -19 -19 -19 -18 -18 -18 -18 -17 -17 -17 -17 -17 -21 -28 -28 -30 -30 -30 -31 -32 -32 -29 -27 -26 -26 -25 -29 -32 -33
-28 -28 -28 -28 -26 -26 -25 -25 -23 -22 -22 -24 -24 -20 -20 -20 -19 -19 -19 -19 -18 -18 -18 -19 -22 -28 -32 -31 -30 -24 -24 -27 -30 -28 -25 -24 -24 -24 -26 -29 -31 -32 -34 -34
-28 -28 -29 -28 -27 -26 -26 -26 -25 -24 -23 -23 -24 -26 -21 -20 -20 -20 -19 -19 -19 -20 -24 -27 -31 -32 -31 -31 -30 -30 -29 -24 -22 -22 -22 -22 -24 -27 -30 -32 -34 -34 -33 -32
-27 -28 -28 -28 -26 -27 -27 -27 -25 -24 -24 -23 -23 -23 -27 -26 -25 -24 -22 -23 -27 -31 -31 -31 -31 -29 -21 -21 -21 -22 -20 -20 -20 -21 -22 -24 -27 -30 -33 -34 -33 -32 -30 -28
-26 -26 -26 -27 -27 -28 -28 -26 -25 -24 -24 -23 -23 -23 -23 -26 -28 -28 -29 -30 -30 -27 -31 -31 -31 -22 -20 -20 -20 -20 -20 -20 -21 -23 -25 -28 -30 -33 -33 -31 -28 -25 -21 -19
-26 -26 -27 -27 -27 -28 -25 -24 -24 -24 -24 -24 -23 -23 -24 -22 -25 -27 -28 -30 -31 -31 -30 -25 -21 -20 -20 -20 -20 -20 -20 -22 -26 -28 -29 -32 -32 -30 -26 -22 -19 -18 -17 -16
-27 -27 -27 -27 -26 -25 -25 -24 -24 -24 -24 -24 -23 -23 -23 -24 -22 -22 -26 -28 -30 -31 -31 -31 -31 -29 -25 -24 -25 -27 -28 -28 -28 -30 -31 -29 -23 -19 -17 -17 -17 -16 -16 -16
-28 -27 -27 -26 -26 -25 -25 -25 -24 -24 -24 -23 -23 -23 -23 -24 -23 -22 -23 -27 -29 -31 -31 -31 -31 -31 -31 -29 -28 -28 -28 -29 -31 -27 -20 -18 -17 -16 -16 -16 -16 -16 -16 -17
Wind_Speed
2 3 3 4 7 16 19 20 11 14 18 12 9 8 17 12 14 18 25 23 20 23 25 26 28 31 34 38 44 48 49 48 46 43 40 38 36 35 33 30 28 27 26 25
3 4 4 5 12 16 21 16 22 23 30 6 23 26 20 18 21 30 27 37 38 29 28 27 27 30 34 38 41 47 50 49 48 46 46 45 43 42 39 37 35 34 33 31
9 4 1 10 20 19 8 11 14 18 31 7 12 17 21 26 30 29 41 37 33 37 37 36 33 31 31 37 40 42 46 46 47 47 48 49 49 48 46 44 41 39 38 36
5 4 11 8 6 12 24 21 20 23 29 19 22 32 35 22 25 33 33 36 38 39 39 36 33 33 33 34 38 41 40 38 39 43 47 50 51 51 50 49 48 46 43 40
7 12 17 28 5 6 8 18 18 21 24 29 33 33 30 25 35 37 38 33 30 27 29 31 32 30 31 33 33 37 36 35 37 42 45 47 47 46 48 49 50 49 47 45
10 9 15 26 10 16 6 20 15 23 20 21 18 10 9 6 7 11 17 20 21 22 24 24 23 24 26 24 28 31 33 36 38 38 38 39 41 42 42 44 45 46 45 45
19 13 12 5 8 18 11 3 6 8 7 7 7 9 4 3 10 13 13 12 13 14 14 15 16 18 21 26 31 33 34 34 34 33 33 34 33 33 34 35 37 38 40 40
13 13 21 8 8 18 2 9 11 12 10 10 9 8 14 14 13 13 7 7 7 6 5 6 9 13 16 20 22 23 24 25 26 27 27 28 28 28 29 30 32 33 34 34
11 8 5 10 12 6 6 9 6 7 9 10 10 11 10 8 5 7 10 10 11 11 10 11 10 9 9 10 13 15 17 18 20 21 22 23 23 24 25 26 27 27 30 30
4 5 8 11 10 9 8 8 6 4 5 6 9 10 12 11 9 7 6 5 5 6 7 8 9 11 13 13 14 14 14 14 15 17 17 19 20 20 21 22 23 24 24 25
3 7 12 9 9 8 7 6 6 5 4 4 5 6 9 12 13 12 14 14 14 12 11 11 11 11 12 12 13 14 15 15 15 16 16 17 18 18 19 20 20 21 21 21
2 8 6 7 9 6 6 7 7 7 9 10 11 12 12 12 14 15 14 14 16 16 15 14 14 14 14 14 14 13 13 13 14 14 13 14 14 14 13 14 15 16 18 18
5 13 11 10 3 6 10 10 8 9 10 15 14 15 17 18 16 16 18 16 16 16 16 16 16 15 14 13 13 13 13 13 12 12 12 12 12 12 12 13 13 14 17 19
9 13 5 5 9 14 12 13 11 10 11 13 16 16 17 18 16 16 18 19 19 18 18 18 18 17 16 15 14 13 13 14 14 13 13 13 13 13 13 13 15 16 17 18
15 14 11 12 11 14 14 15 13 12 13 13 14 15 15 17 17 17 16 16 17 19 20 19 18 17 16 15 15 15 15 14 14 13 13 14 13 13 14 15 16 17 17 18
17 14 11 13 14 15 16 15 17 16 15 15 16 15 16 17 18 18 17 16 15 16 17 18 18 17 15 15 15 14 14 13 14 14 14 14 14 14 15 16 17 17 17 17
17 14 18 18 19 20 20 19 19 20 20 18 16 16 16 16 17 17 16 16 16 16 16 16 16 16 16 15 14 14 14 13 13 14 14 14 15 15 15 15 16 17 17 17
13 14 15 17 20 23 23 20 20 20 20 19 18 17 16 16 16 17 15 15 15 15 15 15 15 16 15 15 14 14 14 14 15 15 14 14 14 14 15 16 18 19 19 20
15 16 16 17 18 21 22 22 22 21 19 19 19 18 17 16 16 17 16 16 16 15 15 15 15 16 16 15 14 14 15 15 15 14 14 14 14 15 17 18 20 23 23 25
19 18 18 19 18 20 22 21 22 22 19 20 19 18 18 17 16 16 16 16 16 16 15 15 16 16 14 14 14 15 16 16 15 14 14 14 15 17 18 20 22 25 27 30
24 22 22 21 22 20 20 21 22 22 20 21 20 18 18 17 18 17 17 18 16 16 16 14 15 16 17 16 16 17 15 14 13 13 14 17 18 20 23 24 27 30 31 32
25 25 25 24 23 24 22 22 21 22 22 21 21 20 20 20 20 20 19 19 18 16 17 17 18 18 16 15 16 15 13 14 16 17 18 20 23 26 28 30 31 31 31 32
23 24 26 26 25 26 25 23 22 22 23 22 21 21 22 21 20 21 21 19 19 18 19 19 17 16 14 16 16 15 16 18 21 22 24 25 27 30 31 32 31 32 34 37
26 26 24 24 26 27 27 21 20 20 21 20 22 21 23 24 24 23 22 21 20 17 17 19 18 16 14 13 17 21 23 24 24 25 26 28 30 31 32 33 35 36 39 41
24 23 25 24 23 22 19 19 19 19 19 19 20 20 22 23 25 22 21 18 19 20 20 19 15 15 15 21 24 26 26 25 24 26 28 29 29 31 34 37 39 38 35 34
22 25 24 21 21 19 19 18 17 17 17 19 18 18 18 19 21 21 20 19 19 18 19 18 18 18 19 21 22 22 22 22 24 26 27 29 32 35 35 33 32 34 37 39
23 20 18 16 15 13 15 17 18 18 16 18 20 17 17 16 17 18 18 18 18 18 18 18 17 17 17 18 19 20 21 23 23 26 29 29 28 29 31 35 38 42 45 48
Wind_Direction
284 106 166 190 183 189 208 220 218 246 242 239 254 254 267 273 282 279 280 277 271 261 257 253 249 244 239 233 228 225 224 227 230 232 236 238 239 243 246 246 246 247 249 251
241 141 216 257 230 203 214 226 249 269 270 261 264 272 268 262 263 267 270 271 268 263 260 258 255 253 248 240 234 230 229 230 233 237 239 242 243 244 246 248 249 249 250 252
254 120 72 272 228 217 197 211 218 231 251 179 255 250 248 254 258 258 260 262 268 273 271 262 265 266 256 248 236 234 231 233 237 240 244 246 246 246 248 249 251 251 252 252
242 143 234 244 159 201 215 228 217 248 259 257 263 267 267 265 260 262 264 266 268 268 270 270 267 262 263 255 245 237 234 234 238 243 245 246 248 249 249 250 251 252 254 255
230 224 262 281 185 155 173 250 223 235 252 255 260 266 275 275 275 273 276 271 267 265 264 267 266 264 255 251 243 236 225 234 244 246 247 247 248 251 251 249 250 251 252 254
223 231 239 265 204 188 104 263 180 214 235 243 254 260 283 276 288 270 271 274 268 264 262 259 257 252 245 239 225 227 237 245 248 250 250 247 248 251 251 250 250 252 253 255
223 237 260 194 151 145 190 231 27 21 314 301 244 257 239 282 318 324 323 312 285 274 265 253 243 238 237 235 237 242 246 248 249 249 249 249 249 248 248 248 248 248 251 253
227 233 243 50 147 221 315 80 68 52 36 37 17 317 300 296 297 298 316 346 354 346 318 279 257 245 241 243 245 245 245 247 248 248 248 247 245 244 244 243 244 246 249 252
198 209 76 48 95 99 82 107 62 50 27 26 29 14 11 11 342 310 310 312 307 304 299 297 295 286 269 256 248 246 245 244 243 242 242 243 242 240 238 237 238 239 241 246
170 135 113 97 80 79 81 88 84 63 31 10 360 350 337 336 333 322 321 322 322 320 314 301 286 277 271 266 260 256 252 247 243 240 239 239 241 239 236 237 236 238 238 240
97 99 109 79 57 44 48 49 52 44 18 351 332 317 308 304 305 301 295 293 286 271 259 255 252 253 253 250 251 248 243 241 240 239 237 236 235 235 236 237 235 235 236 236
55 13 341 94 5 357 8 359 348 330 307 307 307 303 299 298 294 292 282 278 279 278 273 265 259 256 254 252 248 246 244 240 240 242 239 236 234 230 228 227 227 229 232 232
319 322 310 311 327 336 344 329 323 312 301 292 290 294 299 298 295 286 282 276 269 268 268 264 259 253 246 240 239 238 237 239 236 229 227 226 226 227 229 229 234 238 238 234
1 353 57 6 325 331 328 324 317 304 293 290 287 291 295 298 293 288 283 280 274 266 258 254 252 247 242 239 234 233 234 233 232 234 235 232 233 236 238 240 238 238 239 242
347 351 322 317 329 323 322 324 321 311 296 294 294 293 286 286 288 285 279 271 269 266 262 256 251 246 241 239 233 228 232 235 235 233 234 236 237 239 241 242 245 247 248 251
335 343 336 337 333 327 325 322 318 316 312 306 302 298 294 288 284 279 276 271 263 259 256 251 246 244 238 232 227 223 224 226 225 227 230 233 237 241 245 252 258 262 266 268
345 343 337 333 333 329 328 322 320 320 317 314 310 301 293 287 281 277 272 265 255 251 246 238 236 233 230 229 227 227 228 232 234 236 242 245 249 251 253 259 266 270 274 278
323 318 316 315 317 320 320 319 314 313 312 311 308 302 293 283 275 271 267 262 254 245 239 235 233 232 231 231 230 231 235 239 242 243 244 245 250 257 264 269 273 276 281 282
321 315 314 310 310 308 312 315 311 304 305 304 300 296 289 280 273 268 263 256 250 245 240 236 235 235 234 235 239 242 241 241 241 244 250 257 261 267 270 274 278 282 287 291
316 312 308 308 306 304 305 306 304 301 297 295 292 290 287 282 274 267 261 257 253 250 249 242 239 241 244 242 235 237 238 241 244 249 255 262 269 276 279 283 286 292 295 296
309 308 306 303 301 299 299 299 298 297 296 286 284 282 280 276 273 270 265 263 260 256 256 256 255 251 248 243 236 231 245 245 247 257 270 275 276 277 285 290 293 294 295 295
300 300 302 302 298 297 299 297 291 291 290 285 277 275 271 268 267 266 263 263 264 267 261 254 249 246 246 239 239 242 245 255 266 273 277 282 288 292 294 295 296 297 296 295
296 295 295 295 295 297 297 294 292 287 286 283 279 270 267 266 263 264 267 268 264 259 255 254 252 244 240 243 250 251 263 267 274 279 284 288 290 292 294 294 294 293 292 292
299 297 293 291 293 294 294 297 290 289 288 286 277 272 261 261 262 262 265 263 262 258 254 253 250 245 244 257 260 261 265 270 276 281 285 288 291 292 292 292 292 293 293 294
296 294 295 296 295 293 294 296 295 292 291 287 282 276 267 256 257 262 266 262 256 252 247 244 242 244 242 254 256 261 268 273 279 284 288 291 292 292 293 294 296 297 296 295
301 297 295 292 288 287 286 287 284 288 290 289 287 285 278 265 255 255 260 262 256 251 251 250 250 248 246 248 257 265 272 280 285 287 289 290 292 293 294 296 296 295 294 295
300 297 290 291 290 282 278 286 288 288 289 290 284 281 282 271 261 255 255 260 257 253 252 254 253 254 259 263 268 275 282 286 290 294 296 297 299 302 303 300 298 297 297 296
Height
1486 1493 1494 1494 1499 1509 1507 1493 1485 1460 1465 1471 1473 1476 1476 1478 1480 1481 1481 1483 1484 1484 1484 1483 1485 1487 1489 1493 1497 1502 1506 1510 1514 1519 1523 1527 1529 1531 1534 1537 1539 1541 1543 1544
1492 1497 1496 1494 1490 1495 1495 1492 1488 1483 1469 1479 1474 1473 1475 1477 1476 1475 1475 1476 1477 1478 1479 1479 1480 1482 1483 1486 1489 1493 1498 1503 1508 1512 1515 1518 1521 1523 1527 1530 1532 1534 1535 1538
1477 1495 1498 1486 1468 1477 1484 1484 1477 1476 1440 1471 1467 1466 1468 1469 1469 1469 1467 1468 1469 1470 1472 1474 1475 1477 1476 1478 1481 1485 1489 1495 1500 1504 1506 1509 1511 1514 1517 1520 1523 1525 1527 1529
1479 1496 1491 1448 1448 1453 1459 1460 1468 1460 1446 1462 1459 1458 1456 1461 1463 1460 1462 1461 1461 1461 1462 1464 1467 1468 1470 1471 1474 1477 1482 1488 1491 1493 1495 1498 1500 1503 1508 1511 1513 1516 1518 1521
1478 1471 1459 1443 1452 1458 1459 1447 1453 1453 1449 1452 1452 1452 1447 1455 1453 1452 1452 1453 1453 1453 1453 1455 1457 1459 1461 1462 1465 1468 1473 1479 1481 1483 1484 1487 1490 1494 1497 1500 1502 1505 1508 1511
1474 1468 1456 1413 1437 1442 1450 1437 1439 1440 1440 1441 1448 1449 1444 1447 1446 1447 1447 1446 1445 1445 1445 1445 1447 1450 1452 1455 1458 1463 1468 1470 1472 1474 1476 1477 1481 1483 1487 1490 1493 1496 1498 1502
1456 1457 1440 1430 1436 1441 1448 1432 1438 1439 1440 1442 1444 1445 1446 1446 1446 1445 1445 1444 1442 1441 1441 1441 1442 1444 1448 1451 1453 1457 1460 1462 1463 1465 1467 1469 1472 1474 1478 1481 1484 1487 1489 1492
1449 1450 1444 1431 1434 1433 1437 1437 1437 1441 1442 1441 1443 1444 1445 1445 1445 1443 1442 1442 1442 1441 1441 1441 1441 1442 1444 1447 1449 1451 1453 1455 1457 1459 1460 1462 1464 1466 1469 1472 1475 1478 1481 1483
1423 1417 1429 1432 1433 1436 1436 1436 1439 1440 1441 1441 1442 1443 1444 1443 1442 1442 1442 1442 1441 1441 1440 1441 1441 1442 1442 1444 1446 1447 1448 1449 1450 1452 1454 1456 1458 1460 1462 1465 1467 1471 1473 1475
1417 1426 1432 1437 1438 1437 1436 1436 1437 1439 1439 1440 1440 1440 1441 1442 1442 1441 1441 1440 1440 1440 1440 1440 1441 1442 1443 1443 1444 1445 1446 1447 1448 1449 1450 1452 1455 1457 1457 1460 1463 1465 1468 1470
1419 1434 1435 1439 1438 1437 1437 1437 1437 1439 1440 1439 1439 1439 1440 1440 1440 1440 1440 1440 1439 1438 1438 1438 1438 1439 1440 1441 1443 1443 1443 1444 1446 1446 1447 1449 1450 1452 1454 1455 1458 1460 1463 1465
1421 1442 1437 1440 1441 1439 1438 1437 1436 1436 1438 1439 1437 1435 1435 1436 1435 1435 1435 1435 1435 1434 1434 1436 1436 1437 1438 1438 1439 1441 1441 1441 1442 1444 1445 1446 1447 1448 1450 1451 1453 1456 1458 1461
1444 1441 1441 1440 1441 1439 1439 1438 1437 1437 1438 1437 1437 1433 1432 1432 1432 1431 1431 1429 1429 1430 1430 1430 1431 1432 1434 1434 1435 1436 1437 1439 1440 1440 1441 1443 1445 1445 1446 1447 1448 1451 1455 1457
1444 1440 1440 1441 1439 1438 1437 1437 1436 1437 1437 1435 1433 1430 1429 1429 1428 1427 1427 1427 1426 1426 1426 1427 1428 1429 1428 1428 1429 1432 1434 1434 1436 1438 1440 1441 1442 1443 1443 1445 1447 1448 1448 1450
1444 1443 1442 1440 1438 1438 1436 1435 1434 1434 1434 1432 1430 1427 1426 1425 1424 1423 1423 1423 1423 1423 1423 1423 1424 1425 1424 1425 1426 1427 1427 1431 1433 1433 1435 1437 1437 1439 1440 1442 1442 1443 1444 1445
1442 1441 1440 1438 1436 1435 1433 1433 1432 1432 1430 1427 1424 1422 1421 1420 1420 1419 1419 1419 1419 1419 1419 1420 1420 1422 1419 1422 1424 1424 1424 1427 1429 1429 1431 1432 1434 1434 1435 1436 1437 1437 1436 1439
1440 1439 1436 1435 1435 1432 1431 1429 1427 1426 1425 1423 1420 1419 1418 1417 1416 1415 1415 1415 1414 1415 1417 1416 1416 1418 1418 1418 1419 1421 1423 1424 1425 1427 1427 1427 1428 1429 1428 1428 1430 1431 1429 1432
1442 1440 1438 1435 1433 1431 1428 1425 1424 1421 1420 1418 1416 1415 1414 1414 1413 1413 1412 1412 1413 1412 1413 1413 1413 1415 1415 1415 1415 1417 1419 1420 1421 1422 1422 1422 1422 1423 1423 1422 1423 1424 1423 1423
1439 1437 1435 1433 1431 1428 1424 1421 1420 1419 1418 1415 1413 1411 1411 1411 1410 1410 1410 1410 1410 1409 1410 1410 1411 1411 1411 1411 1412 1414 1416 1417 1417 1417 1417 1417 1416 1418 1418 1418 1417 1418 1416 1414
1435 1434 1431 1429 1427 1425 1421 1420 1417 1415 1414 1412 1409 1408 1407 1407 1406 1406 1405 1405 1405 1405 1406 1406 1406 1406 1406 1408 1410 1411 1412 1413 1412 1412 1412 1412 1412 1413 1412 1412 1411 1409 1407 1406
1432 1429 1427 1425 1423 1421 1419 1416 1413 1411 1408 1408 1405 1404 1403 1402 1402 1402 1401 1401 1402 1402 1402 1402 1402 1402 1403 1405 1407 1408 1407 1408 1407 1407 1406 1407 1407 1408 1406 1405 1403 1402 1400 1398
1427 1424 1422 1420 1417 1414 1413 1411 1408 1406 1404 1402 1400 1399 1399 1398 1398 1398 1397 1397 1397 1398 1398 1397 1397 1398 1399 1401 1402 1403 1403 1403 1402 1402 1402 1402 1401 1399 1397 1396 1394 1393 1391 1389
1421 1418 1415 1413 1410 1407 1405 1404 1402 1400 1397 1396 1394 1393 1393 1393 1393 1393 1392 1393 1392 1393 1393 1393 1393 1394 1396 1398 1398 1399 1398 1398 1397 1397 1396 1395 1393 1391 1389 1388 1386 1384 1382 1380
1414 1411 1408 1406 1403 1400 1396 1396 1394 1392 1391 1389 1388 1387 1387 1387 1387 1387 1387 1387 1388 1388 1387 1388 1389 1390 1393 1393 1393 1393 1393 1392 1391 1390 1389 1388 1386 1383 1381 1379 1376 1374 1370 1367
1406 1403 1401 1399 1395 1393 1391 1389 1387 1386 1384 1382 1381 1380 1379 1380 1380 1381 1381 1381 1382 1382 1382 1383 1386 1388 1389 1387 1386 1386 1386 1385 1384 1383 1381 1379 1377 1375 1372 1368 1364 1361 1357 1354
1400 1397 1394 1392 1389 1387 1385 1384 1382 1381 1379 1377 1375 1373 1372 1372 1373 1374 1374 1375 1375 1376 1376 1377 1378 1379 1379 1380 1380 1380 1379 1379 1378 1376 1374 1371 1369 1365 1362 1358 1355 1351 1348 1344
1394 1391 1389 1386 1384 1383 1381 1379 1377 1376 1374 1372 1370 1369 1368 1367 1367 1367 1368 1369 1369 1370 1371 1372 1373 1374 1374 1374 1374 1374 1373 1372 1371 1368 1365 1362 1359 1355 1352 1348 1344 1340 1335 1330